Location: La Comballaz
(46.3780°N, 7.0817°E)
Time: 05:27:04
(UTC+00:00)

N. Korean satellite - Pass Details

Date: 07 December 2021
Orbit: 447 x 491 km, 97.3° (Epoch: 25 January)

Event Time Altitude Azimuth Distance (km) Brightness Sun altitude
Rises 17:07:18 0° 215° (SW) 2,517 11.1 -13.6°
Reaches altitude 10° 17:10:45 10° 252° (WSW) 1,633 10.7 -14.1°
Maximum altitude 17:11:50 11° 270° (W) 1,562 10.3 -14.3°
Drops below altitude 10° 17:12:54 10° 288° (WNW) 1,629 10.1 -14.5°
Sets 17:16:21 0° 325° (NW) 2,499 10.4 -15.1°
